Regional Weather Roundup
Issued by NWS

Home | Current Version | Previous Version | Text Only | Print | Product List | Glossary On
Versions: 1 2 3 4 5 6 7 8 9 10 11 12 13 14 15 16 17 18 19 20 21 22 23 24 25 26 27 28 29 30 31 32 33 34 35 36 37 38 39 40 41 42 43 44 45 46 47 48 49 50
000
ASUS43 KMKX 190421
RWRWI

WISCONSIN REGIONAL WEATHER ROUNDUP
NATIONAL WEATHER SERVICE MILWAUKEE/SULLIVAN WI
1100 PM CDT FRI APR 18 2014

NOTE: "FAIR" INDICATES FEW OR NO CLOUDS BELOW 12,000 FEET WITH NO
SIGNIFICANT WEATHER AND/OR OBSTRUCTIONS TO VISIBILITY.

WIZ001-002-006>008-014>016-023>028-190500-
NORTHWEST WISCONSIN

CITY           SKY/WX    TMP DP  RH WIND       PRES   REMARKS
SUPERIOR ARPT  CLOUDY    32  28  83 NE7       30.33S WCI  26
ASHLAND        CLOUDY    28  26  92 N7        30.35F WCI  21
HAYWARD        CLOUDY    40  15  36 E9        30.29F WCI  34
SIREN          PTCLDY    41  22  46 E7        30.26F
RICE LAKE      MOCLDY    41  23  48 E6        30.30R
LADYSMITH      MOCLDY    41  20  43 E9        30.30F
EAU CLAIRE     CLEAR     44  23  43 E10       30.27F
MENOMONIE      CLEAR     41  27  58 E5        30.27S
NEW RICHMOND   CLEAR     41  27  57 E7        30.25S
OSCEOLA        CLEAR     40  27  60 E8        30.26S WCI  34
$$

WIZ003>005-009-010-017-018-190500-
NORTH CENTRAL WISCONSIN

CITY           SKY/WX    TMP DP  RH WIND       PRES   REMARKS
WOODRUFF       PTCLDY    33  24  67 SE6       30.34S WCI  28
RHINELANDER    PTCLDY    29  21  72 E6        30.36R WCI  23
EAGLE RIVER    CLEAR     31  22  67 SE3       30.35R
LAND O LAKES   CLEAR     29  24  83 CALM      30.35S
PHILLIPS       CLOUDY    36  20  50 E7        30.31F WCI  31
TOMAHAWK       PTCLDY    34  20  54 CALM      30.33F
MEDFORD        PTCLDY    38  19  45 E7        30.30F WCI  33
MERRILL        PTCLDY    37  21  53 CALM      30.34S
$$

WIZ029-030-035-036-043>047-190500-
CENTRAL WISCONSIN

CITY           SKY/WX    TMP DP  RH WIND       PRES   REMARKS
WAUSAU         CLEAR     38  25  59 E10       30.34R WCI  31
MOSINEE        CLEAR     37  27  65 E10       30.36R WCI  30
MARSHFIELD     CLEAR     40  22  48 E12       30.31S WCI  33
STEVENS POINT  CLEAR     37  29  72 E9        30.35S WCI  30
WAUPACA        CLEAR     37  30  75 E8        30.38S WCI  31
WAUTOMA        CLEAR     38  29  70 E6        30.37R WCI  33
WISC RAPIDS    CLEAR     40  28  62 E14       30.35R WCI  32
CAMP DOUGLAS   CLEAR     42  30  62 E9        30.31S
$$

WIZ011>013-019>022-031-037>040-048>050-190500-
NORTHEAST WISCONSIN

CITY           SKY/WX    TMP DP  RH WIND       PRES   REMARKS
ANTIGO         CLEAR     32  23  69 SE9       30.37R WCI  25
STURGEON BAY   CLEAR     32  25  74 E6        30.42S WCI  26
GREEN BAY      CLEAR     34  26  72 E7        30.41R WCI  28
MANITOWOC      CLEAR     31  27  85 N3        30.42R
APPLETON       CLEAR     36  27  69 E5        30.39S WCI  32
CLINTONVILLE   CLEAR     36  30  80 E5        30.39S WCI  32
OSHKOSH        CLEAR     35  26  69 SE9       30.37F WCI  28
$$

WIZ032>034-041-042-053>061-190500-
SOUTHWEST WISCONSIN

CITY           SKY/WX    TMP DP  RH WIND       PRES   REMARKS
LA CROSSE      CLEAR     48  27  44 E9        30.26S
SPARTA         CLEAR     43  25  49 E6        30.30S
VIROQUA        FAIR      42  28  55 E8        30.27S
BOSCOBEL       CLEAR     50  27  40 E9        30.29S
PRAIRIE DU CHI CLEAR     48  28  45 E7        30.26S
PLATTEVILLE    FAIR      44  31  60 E13       30.29S
$$

WIZ056-057-062-063-064-067-068-190500-
SOUTH CENTRAL WISCONSIN

CITY           SKY/WX    TMP DP  RH WIND       PRES   REMARKS
BARABOO/DELLS  CLEAR     42  31  64 E7        30.31F
LONE ROCK      CLEAR     43  34  70 E8        30.30F
WATERTOWN      CLEAR     33  27  79 E6        30.36F WCI  28
MADISON        PTCLDY    37  28  70 E10       30.36R WCI  30
MIDDLETON      FAIR      40  30  67 E14       30.34S WCI  33
MONROE         CLEAR     38  31  75 E13G18    30.32S WCI  30
JANESVILLE     CLEAR     36  28  75 E8        30.36R WCI  29
$$

WIZ051-052-058>065-066-070>072-190500-
SOUTHEAST WISCONSIN

CITY           SKY/WX    TMP DP  RH WIND       PRES   REMARKS
MILWAUKEE      CLEAR     34  28  79 CALM      30.40R
WAUKESHA       CLEAR     32  27  80 E6        30.39R WCI  26
MILWAUKEE/TIMM CLEAR     34  27  75 NE3       30.40R
RACINE         CLEAR     34  28  79 N7        30.40R WCI  28
BURLINGTON     CLEAR     31  26  80 E3        30.39R
KENOSHA        CLEAR     34  27  75 NE8       30.38S WCI  27
FOND DU LAC    CLEAR     35  24  64 E6        30.38R WCI  30
SHEBOYGAN      CLEAR     31  25  78 NE7       30.40S WCI  24
WEST BEND      CLEAR     32  27  80 E6        30.38S WCI  26
JUNEAU         CLEAR     35  24  66 E13       30.37F WCI  26
$$

LSZ147-162-190500-
LAKE SUPERIOR

STATION/POSITION TIME  TEMP    WIND        PRES    WAVE
                       AIR SEA DIR/SP/G            HT/PER
                 (UTC) (F)     (DEG/KT/KT) (MB)    (FT/S)
DEVILS ISLAND    0400   32      90/ 12/ 13 1029.3F
PORT WING        0340   34      80/  4/  8 1027.4F
SAXON HARBOR     0300           CALM  /  2 1028.1S
$$

LMZ867-665-643>646-190500-
LAKE MICHIGAN

STATION/POSITION TIME  TEMP    WIND        PRES    WAVE
                       AIR SEA DIR/SP/G            HT/PER
                 (UTC) (F)     (DEG/KT/KT) (MB)    (FT/S)
NORTHPORT PIER   0300   30      CALM  /  2 1030.1F
SISTER BAY       0323   32        CALM       N/A
KEWAUNEE LAKESHO 0400   34      70/  4/  7 1030.3R
SHEBOYGAN LAKESH 0400   37      30/  9/ 10 1030.4R
PORT WASHINGTON  0300   37      40/ 11/ 12 1029.8S
MILWAUKEE LAKESH 0400   36      20/  7/  8   N/A
KENOSHA   LAKESH 0400   38      20/ 13/ 15   N/A
$$

TC  - TEMPERATURE IN CELSIUS
VSB - VISIBILITY IN STATUTE MILES
WCI - WIND CHILL INDEX
HX  - HEAT INDEX




USA.gov is the U.S. government's official web portal to all federal, state and local government web resources and services.